�������l�o���
Date,Time,MP-1(��Sv/h),MP-2(��Sv/h),MP-3(��Sv/h),MP-4(��Sv/h),MP-5(��Sv/h),MP-6(��Sv/h),MP-7(��Sv/h),MP-8(��Sv/h),����,����(m/s),���J
2021/03/15,00:00,0.629,0.913,0.585,1.143,0.788,0.370,0.650,0.613,��,9.1,��
2021/03/15,00:10,0.630,0.911,0.584,1.143,0.790,0.370,0.651,0.612,��,11.3,��
2021/03/15,00:20,0.627,0.916,0.584,1.144,0.787,0.369,0.652,0.614,��,7.5,��
2021/03/15,00:30,0.628,0.913,0.583,1.142,0.790,0.369,0.651,0.612,��,8.7,��
2021/03/15,00:40,0.630,0.914,0.583,1.143,0.791,0.371,0.652,0.614,��,8.2,��
2021/03/15,00:50,0.629,0.914,0.582,1.143,0.788,0.371,0.651,0.615,��,7.9,��
2021/03/15,01:00,0.628,0.911,0.585,1.144,0.792,0.371,0.653,0.613,��,7.8,��
2021/03/15,01:10,0.629,0.915,0.585,1.144,0.789,0.371,0.650,0.613,��,8.6,��
2021/03/15,01:20,0.629,0.915,0.584,1.145,0.791,0.370,0.654,0.614,��,7.7,��
2021/03/15,01:30,0.630,0.916,0.585,1.148,0.790,0.369,0.652,0.614,��,7.6,��
2021/03/15,01:40,0.631,0.914,0.584,1.144,0.790,0.371,0.651,0.614,��,6.5,��
2021/03/15,01:50,0.631,0.915,0.582,1.146,0.790,0.370,0.654,0.612,��,5.6,��
2021/03/15,02:00,0.628,0.913,0.582,1.147,0.789,0.371,0.651,0.614,���k��,5.3,��
2021/03/15,02:10,0.631,0.912,0.583,1.145,0.789,0.371,0.654,0.613,���k��,6.3,��
2021/03/15,02:20,0.629,0.915,0.584,1.144,0.789,0.371,0.653,0.613,���k��,6.5,��
2021/03/15,02:30,0.629,0.913,0.585,1.145,0.792,0.370,0.651,0.613,���k��,6.4,��
2021/03/15,02:40,0.631,0.913,0.585,1.146,0.790,0.370,0.652,0.612,���k��,5.0,��
2021/03/15,02:50,0.628,0.914,0.584,1.145,0.793,0.369,0.651,0.614,���k��,5.1,��
2021/03/15,03:00,0.629,0.915,0.584,1.145,0.791,0.370,0.652,0.613,�k��,6.3,��
2021/03/15,03:10,0.631,0.916,0.583,1.144,0.789,0.370,0.653,0.613,�k��,6.7,��
2021/03/15,03:20,0.629,0.915,0.586,1.145,0.791,0.370,0.653,0.613,�k��,7.8,��
2021/03/15,03:30,0.628,0.917,0.584,1.147,0.791,0.371,0.653,0.613,�k��,8.3,��
2021/03/15,03:40,0.630,0.914,0.584,1.146,0.790,0.370,0.652,0.613,�k��,8.0,��
2021/03/15,03:50,0.631,0.916,0.584,1.144,0.790,0.369,0.652,0.612,�k��,8.3,��
2021/03/15,04:00,0.631,0.914,0.586,1.146,0.790,0.371,0.653,0.613,�k��,11.3,��
2021/03/15,04:10,0.629,0.916,0.584,1.148,0.792,0.370,0.653,0.613,�k��,9.6,��
2021/03/15,04:20,0.630,0.918,0.584,1.147,0.792,0.369,0.652,0.614,�k��,8.9,��
2021/03/15,04:30,0.630,0.916,0.584,1.145,0.792,0.370,0.653,0.614,�k��,9.6,��
2021/03/15,04:40,0.630,0.915,0.583,1.145,0.793,0.372,0.652,0.614,�k��,7.9,��
2021/03/15,04:50,0.631,0.915,0.583,1.147,0.793,0.370,0.652,0.615,�k��,4.3,��
2021/03/15,05:00,0.629,0.915,0.584,1.146,0.791,0.369,0.652,0.613,���k��,4.8,��
2021/03/15,05:10,0.629,0.916,0.583,1.147,0.792,0.369,0.652,0.613,�k��,5.7,��
2021/03/15,05:20,0.629,0.916,0.583,1.147,0.794,0.369,0.652,0.614,���k��,6.2,��
2021/03/15,05:30,0.630,0.916,0.583,1.145,0.792,0.370,0.652,0.612,�k��,7.2,��
2021/03/15,05:40,0.631,0.917,0.585,1.146,0.794,0.369,0.651,0.612,�k��,6.9,��
2021/03/15,05:50,0.629,0.916,0.585,1.146,0.794,0.368,0.653,0.614,�k��,5.6,��
2021/03/15,06:00,0.630,0.917,0.585,1.147,0.793,0.370,0.652,0.613,�k��,5.7,��
2021/03/15,06:10,0.630,0.917,0.585,1.148,0.794,0.369,0.655,0.614,�k��,5.7,��
2021/03/15,06:20,0.629,0.916,0.585,1.145,0.794,0.371,0.654,0.613,�k��,6.1,��
2021/03/15,06:30,0.631,0.914,0.584,1.144,0.793,0.370,0.654,0.615,�k��,4.9,��
2021/03/15,06:40,0.630,0.919,0.585,1.147,0.792,0.370,0.653,0.614,�k��,6.0,��
2021/03/15,06:50,0.629,0.915,0.586,1.147,0.794,0.370,0.654,0.613,�k��,5.0,��
2021/03/15,07:00,0.630,0.918,0.584,1.147,0.794,0.370,0.653,0.615,�k��,5.0,��
2021/03/15,07:10,0.630,0.916,0.585,1.148,0.793,0.369,0.653,0.614,�k��,5.7,��
2021/03/15,07:20,0.629,0.916,0.584,1.145,0.793,0.370,0.652,0.613,�k��,4.2,��
2021/03/15,07:30,0.631,0.916,0.586,1.147,0.794,0.369,0.653,0.613,���k��,5.2,��
2021/03/15,07:40,0.632,0.916,0.585,1.148,0.794,0.371,0.653,0.614,���k��,3.9,��
2021/03/15,07:50,0.630,0.915,0.584,1.146,0.795,0.370,0.653,0.613,���k��,4.7,��
2021/03/15,08:00,0.631,0.916,0.587,1.145,0.795,0.369,0.653,0.615,�k��,5.3,��
2021/03/15,08:10,0.631,0.917,0.584,1.148,0.795,0.370,0.652,0.615,���k��,4.5,��
2021/03/15,08:20,0.630,0.916,0.584,1.147,0.794,0.370,0.652,0.614,���k��,6.3,��
2021/03/15,08:30,0.630,0.914,0.585,1.147,0.795,0.371,0.654,0.614,�k��,5.1,��
2021/03/15,08:40,0.631,0.916,0.584,1.148,0.795,0.370,0.651,0.613,�k��,3.9,��
2021/03/15,08:50,0.631,0.915,0.584,1.147,0.796,0.369,0.651,0.615,�k��,4.1,��
2021/03/15,09:00,0.632,0.914,0.585,1.148,0.795,0.370,0.652,0.614,�k��,8.1,��
2021/03/15,09:10,0.631,0.913,0.585,1.146,0.795,0.369,0.652,0.614,�k��,10.3,�L
2021/03/15,09:20,0.632,0.913,0.586,1.148,0.795,0.368,0.653,0.614,�k��,8.4,�L
2021/03/15,09:30,0.632,0.912,0.587,1.150,0.797,0.371,0.652,0.613,���k��,6.4,��
2021/03/15,09:40,0.631,0.913,0.587,1.148,0.795,0.370,0.652,0.613,���k��,6.4,�L
2021/03/15,09:50,0.633,0.911,0.585,1.150,0.798,0.370,0.651,0.612,���k��,6.9,��
2021/03/15,10:00,0.633,0.911,0.587,1.148,0.796,0.370,0.652,0.612,���k��,6.4,��
2021/03/15,10:10,0.635,0.914,0.587,1.146,0.794,0.371,0.652,0.612,��,6.9,��
2021/03/15,10:20,0.632,0.914,0.587,1.149,0.796,0.370,0.653,0.613,��,5.0,��
2021/03/15,10:30,0.632,0.917,0.587,1.148,0.797,0.370,0.652,0.614,���k��,6.9,��
2021/03/15,10:40,0.635,0.917,0.585,1.150,0.798,0.370,0.654,0.612,���k��,7.0,��
2021/03/15,10:50,0.632,0.915,0.587,1.151,0.798,0.371,0.654,0.613,��,8.4,��
2021/03/15,11:00,0.629,0.916,0.589,1.153,0.796,0.370,0.654,0.612,��,6.5,��
2021/03/15,11:10,0.631,0.917,0.588,1.151,0.797,0.369,0.654,0.612,���k��,6.8,��
2021/03/15,11:20,0.630,0.917,0.587,1.151,0.796,0.370,0.654,0.613,���k��,8.6,��
2021/03/15,11:30,0.633,0.917,0.585,1.151,0.797,0.369,0.653,0.613,���k��,7.4,��
2021/03/15,11:40,0.632,0.916,0.587,1.150,0.796,0.369,0.655,0.614,���k��,7.3,��
2021/03/15,11:50,0.632,0.919,0.588,1.152,0.796,0.370,0.655,0.613,���k��,6.0,��
2021/03/15,12:00,0.633,0.921,0.587,1.156,0.798,0.370,0.654,0.612,���k��,6.4,��
2021/03/15,12:10,0.633,0.919,0.587,1.152,0.798,0.369,0.655,0.613,���k��,5.7,��
2021/03/15,12:20,0.632,0.920,0.586,1.151,0.799,0.369,0.654,0.613,�k��,7.0,��
2021/03/15,12:30,0.632,0.921,0.586,1.152,0.799,0.371,0.655,0.615,�k��,7.9,��
2021/03/15,12:40,0.633,0.922,0.586,1.152,0.798,0.371,0.654,0.613,�k��,7.6,��
2021/03/15,12:50,0.632,0.921,0.586,1.153,0.798,0.371,0.654,0.613,���k��,6.9,��
2021/03/15,13:00,0.634,0.923,0.586,1.155,0.800,0.371,0.654,0.611,���k��,8.3,��
2021/03/15,13:10,0.632,0.921,0.587,1.156,0.799,0.373,0.655,0.613,�k��,8.0,��
2021/03/15,13:20,0.635,0.921,0.585,1.153,0.799,0.372,0.653,0.614,�k��,8.2,��
2021/03/15,13:30,0.634,0.920,0.586,1.153,0.799,0.370,0.656,0.614,�k��,11.3,��
2021/03/15,13:40,0.635,0.920,0.586,1.156,0.800,0.372,0.656,0.614,�k��,9.4,��
2021/03/15,13:50,0.633,0.921,0.587,1.156,0.800,0.370,0.656,0.614,�k��,8.1,��
2021/03/15,14:00,0.633,0.921,0.588,1.156,0.801,0.372,0.655,0.613,�k��,11.1,��
2021/03/15,14:10,0.634,0.923,0.587,1.156,0.802,0.370,0.656,0.613,�k��,7.8,��
2021/03/15,14:20,0.632,0.923,0.587,1.155,0.802,0.370,0.654,0.613,�k��,6.8,��
2021/03/15,14:30,0.633,0.921,0.587,1.157,0.802,0.371,0.655,0.613,�k��,9.9,��
2021/03/15,14:40,0.636,0.925,0.587,1.157,0.803,0.370,0.657,0.614,�k��,9.6,��
2021/03/15,14:50,0.635,0.923,0.588,1.157,0.803,0.370,0.655,0.612,�k��,8.7,��
2021/03/15,15:00,0.634,0.925,0.589,1.154,0.801,0.369,0.657,0.614,�k��,8.8,��
2021/03/15,15:10,0.633,0.925,0.585,1.158,0.802,0.372,0.657,0.614,�k��,9.3,��
2021/03/15,15:20,0.635,0.925,0.587,1.158,0.802,0.368,0.656,0.614,�k��,8.3,��
2021/03/15,15:30,0.634,0.925,0.587,1.158,0.803,0.371,0.657,0.613,�k��,9.3,��
2021/03/15,15:40,0.633,0.925,0.587,1.159,0.802,0.371,0.657,0.613,�k��,7.9,��
2021/03/15,15:50,0.634,0.924,0.586,1.156,0.802,0.371,0.655,0.614,�k��,8.3,��
2021/03/15,16:00,0.633,0.923,0.588,1.157,0.803,0.371,0.655,0.614,�k��,9.5,��
2021/03/15,16:10,0.633,0.926,0.588,1.159,0.805,0.372,0.654,0.614,�k��,8.1,��
2021/03/15,16:20,0.634,0.925,0.588,1.158,0.805,0.372,0.656,0.613,�k��,8.3,��
2021/03/15,16:30,0.635,0.926,0.589,1.156,0.803,0.372,0.654,0.612,�k��,9.3,��
2021/03/15,16:40,0.632,0.927,0.587,1.156,0.804,0.371,0.654,0.613,�k��,9.7,��
2021/03/15,16:50,0.633,0.925,0.588,1.158,0.804,0.373,0.653,0.611,�k��,8.5,��
2021/03/15,17:00,0.634,0.926,0.587,1.158,0.804,0.371,0.655,0.615,�k��,6.2,��
2021/03/15,17:10,0.633,0.927,0.588,1.158,0.803,0.372,0.656,0.614,���k��,9.0,��
2021/03/15,17:20,0.632,0.927,0.587,1.159,0.802,0.373,0.655,0.615,�k��,7.7,��
2021/03/15,17:30,0.633,0.926,0.587,1.159,0.803,0.372,0.655,0.615,�k��,5.1,��
2021/03/15,17:40,0.636,0.929,0.588,1.162,0.802,0.372,0.654,0.616,���k��,6.5,��
2021/03/15,17:50,0.636,0.928,0.587,1.160,0.804,0.373,0.656,0.616,���k��,7.9,��
2021/03/15,18:00,0.635,0.928,0.590,1.158,0.803,0.374,0.656,0.617,���k��,5.9,��
2021/03/15,18:10,0.637,0.928,0.591,1.160,0.803,0.372,0.656,0.616,���k��,6.7,��
2021/03/15,18:20,0.634,0.929,0.590,1.158,0.804,0.371,0.656,0.616,���k��,5.6,��
2021/03/15,18:30,0.635,0.928,0.591,1.160,0.806,0.372,0.656,0.616,���k��,6.3,��
2021/03/15,18:40,0.635,0.927,0.587,1.157,0.806,0.369,0.655,0.616,���k��,5.4,��
2021/03/15,18:50,0.635,0.927,0.589,1.160,0.806,0.372,0.656,0.615,��,4.3,��
2021/03/15,19:00,0.634,0.928,0.588,1.159,0.806,0.371,0.656,0.615,��,4.3,��
2021/03/15,19:10,0.635,0.928,0.589,1.161,0.806,0.372,0.657,0.616,��,4.7,��
2021/03/15,19:20,0.634,0.928,0.589,1.158,0.805,0.372,0.657,0.614,���k��,5.2,��
2021/03/15,19:30,0.634,0.925,0.591,1.159,0.805,0.371,0.657,0.617,���k��,5.1,��
2021/03/15,19:40,0.634,0.927,0.589,1.158,0.803,0.371,0.655,0.615,���k��,3.6,��
2021/03/15,19:50,0.634,0.928,0.589,1.157,0.805,0.370,0.655,0.614,���k��,4.8,��
2021/03/15,20:00,0.636,0.928,0.588,1.160,0.807,0.371,0.656,0.614,���k��,4.7,��
2021/03/15,20:10,0.635,0.928,0.589,1.158,0.805,0.372,0.656,0.616,���k��,5.3,��
2021/03/15,20:20,0.634,0.929,0.589,1.159,0.806,0.371,0.655,0.615,���k��,5.3,��
2021/03/15,20:30,0.633,0.928,0.588,1.159,0.806,0.371,0.657,0.614,���k��,5.7,��
2021/03/15,20:40,0.635,0.925,0.589,1.159,0.805,0.372,0.654,0.615,���k��,6.9,��
2021/03/15,20:50,0.635,0.928,0.589,1.160,0.805,0.372,0.658,0.616,���k��,7.8,��
2021/03/15,21:00,0.634,0.928,0.589,1.161,0.808,0.372,0.655,0.616,���k��,5.6,��
2021/03/15,21:10,0.635,0.927,0.589,1.158,0.804,0.371,0.655,0.614,���k��,5.6,��
2021/03/15,21:20,0.635,0.929,0.588,1.158,0.805,0.371,0.655,0.616,���k��,6.5,��
2021/03/15,21:30,0.634,0.927,0.589,1.159,0.806,0.371,0.656,0.615,���k��,6.4,��
2021/03/15,21:40,0.634,0.926,0.587,1.158,0.804,0.371,0.656,0.614,���k��,6.4,��
2021/03/15,21:50,0.634,0.928,0.588,1.157,0.805,0.372,0.656,0.616,��,4.7,��
2021/03/15,22:00,0.635,0.928,0.589,1.160,0.806,0.369,0.656,0.616,���쐼,3.3,��
2021/03/15,22:10,0.633,0.928,0.589,1.157,0.806,0.373,0.655,0.615,���쐼,3.0,��
2021/03/15,22:20,0.634,0.927,0.588,1.159,0.806,0.371,0.655,0.615,��,3.8,��
2021/03/15,22:30,0.634,0.927,0.589,1.158,0.805,0.371,0.655,0.614,���쐼,3.3,��
2021/03/15,22:40,0.633,0.928,0.587,1.157,0.807,0.370,0.657,0.615,��,2.3,��
2021/03/15,22:50,0.632,0.927,0.587,1.158,0.805,0.372,0.655,0.614,��,2.3,��
2021/03/15,23:00,0.633,0.925,0.588,1.160,0.806,0.372,0.655,0.614,���쐼,1.9,��
2021/03/15,23:10,0.633,0.926,0.590,1.158,0.807,0.372,0.654,0.615,���쐼,3.2,��
2021/03/15,23:20,0.635,0.926,0.590,1.158,0.806,0.370,0.656,0.613,���쐼,4.2,��
2021/03/15,23:30,0.634,0.926,0.588,1.158,0.806,0.371,0.654,0.614,�쐼,2.9,��
2021/03/15,23:40,0.635,0.923,0.588,1.161,0.806,0.371,0.656,0.615,�쐼,2.8,��
2021/03/15,23:50,0.634,0.927,0.588,1.158,0.806,0.372,0.656,0.615,��쐼,2.9,��
